C/2025 E1 ( PanSTARRS )

Japanese version
Home page
Updated on May 2, 2025

---------------------------------------------------------------------

* Profile

Discovery Date March 2, 2025
Magnitude 20.6 mag
Discoverer Pan-STARRS 1 telescope (Haleakala)

* Pictures

* Orbital Elements

Epoch 2025 May 5.0 TT = JDT 2460800.5
T 2026 Sept. 23.75696 TT                                Pike
q   3.9981897            (2000.0)            P               Q
z  +0.0007056      Peri.  274.42149     -0.02028396     +0.96853100
 +/-0.0000802      Node   344.59771     +0.03655089     -0.24723188
e   0.9971788      Incl.   69.06700     -0.99912591     -0.02870728
From 33 observations 2025 Jan. 3-Apr. 6, mean residual 0".3.

* Magnitudes Graph

        m1 = 9.0 + 5 log d + 10.0 log r

---------------------------------------------------------------------

The orbital elements are published on M.P.E.C. 2025-G119.
The magnitudes graphs are made with Comet for Windows.

---------------------------------------------------------------------

Copyright(C) Seiichi Yoshida (comet@aerith.net). All rights reserved.